Regional Weather Roundup
Issued by NWS Albany, NY

Home | Current Version | Previous Version | Text Only | Print | Product List | Glossary On
Versions: 1 2 3 4 5 6 7 8 9 10 11 12 13 14 15 16 17 18 19 20 21 22 23 24 25 26 27 28 29 30 31 32 33 34 35 36 37 38 39 40 41 42 43 44 45 46 47 48 49 50
000
ASUS41 KALY 260210
RWRALY

NEW YORK STATE HOURLY WEATHER ROUNDUP
NATIONAL WEATHER SERVICE ALBANY NY
1000 PM EDT TUE APR 25 2017

NOTE: "FAIR" INDICATES FEW OR NO CLOUDS BELOW 12,000 FEET WITH NO
SIGNIFICANT WEATHER AND/OR NO OBSTRUCTIONS TO VISIBILITY.

NYZ032-033-038>043-046>054-057>066-NYZ062>081-082-084-260300-
EAST


CITY           SKY/WX    TMP DP  RH WIND       PRES   REMARKS
ALBANY         LGT RAIN  51  47  86 NE5       30.04F FOG
GLENS FALLS    LGT RAIN  50  46  86 NE8       30.06F
POUGHKEEPSIE   LGT RAIN  50  49  96 N7        29.96F FOG
NEWBURGH       LGT RAIN  50  50 100 E13G18    29.96F FOG
MONTGOMERY     LGT RAIN  51  49  92 NE12      29.95S
WHITE PLAINS   LGT RAIN  53  51  93 E15G22    29.90F FOG
ISLIP          CLOUDY    56  56 100 E15G26    29.89F
NEW YORK CITY  RAIN      52  50  93 NE20      29.88F FOG
CENTRAL PARK   RAIN      51  51 100 NE16G28   29.91F FOG
$$

NYZ005>009-017-018-044>046-055-056-260300-
CENTRAL


CITY           SKY/WX    TMP DP  RH WIND       PRES   REMARKS
FULTON         CLOUDY    55  47  74 VRB7G21   29.93F
SYRACUSE       CLOUDY    52  48  86 E15G22    29.93F
ROME           CLOUDY    53  48  83 E10       29.99F
ELMIRA         CLOUDY    57  53  86 NE7       29.88F
BINGHAMTON     CLOUDY    50  49  96 E9        29.89F
MONTICELLO     CLOUDY    48  48 100 E13G22    29.95S
$$

NYZ026>034-041>043-087-260300-
NORTH


CITY           SKY/WX    TMP DP  RH WIND       PRES   REMARKS
WATERTOWN      CLOUDY    55  50  83 E3        29.95S
FORT DRUM      NOT AVBL
OGDENSBURG     FAIR      51  49  95 E5        29.99S
MASSENA        LGT RAIN  48  48 100 NE7       30.02F
SARANAC LAKE   LGT RAIN  51  49  92 E3        30.03S
PLATTSBURGH    LGT RAIN  48  45  89 S5        30.09F
$$

NYZ001>004-010>016-019>021-085-260300-
WEST


CITY           SKY/WX    TMP DP  RH WIND       PRES   REMARKS
NIAGARA FALLS  MOCLDY    63  51  65 SE12      29.83S
BUFFALO        CLOUDY    62  50  64 SE6       29.86R
DUNKIRK        CLOUDY    62  52  69 SE12      29.82S
JAMESTOWN      MOCLDY    57  48  72 SE9       29.84S
WELLSVILLE     CLOUDY    53  50  89 E7        29.89F
ROCHESTER      LGT RAIN  58  52  80 E8        29.88S
PENN YAN       CLOUDY    58  48  69 E5        29.90S
$$

             KEY
       WCI = WIND CHILL INDEX
       VSB = VISIBILITY
       HX  = HEAT INDEX
$$



USA.gov is the U.S. government's official web portal to all federal, state and local government web resources and services.